Location: *
(45.8589°N, 4.7139°E)
Time: 03:17:42
(UTC+00:00)

Cosmos 1461 - Pass Details

Date: 09 April 2020
Orbit: 507 x 659 km, 65.0° (Epoch: 29 May)

Event Time Altitude Azimuth Distance (km) Brightness Sun altitude
Rises 18:56:21 0° 326° (NW) 2,883 7.5 -6.8°
Reaches altitude 10° 18:58:37 10° 330° (NNW) 1,997 6.5 -7.2°
Maximum altitude 19:03:07 63° 51° (NE) 716 3.2 -7.9°
Drops below altitude 10° 19:07:45 10° 133° (SE) 2,053 5.2 -8.7°
Enters shadow 19:07:58 - 134° (SE) 2,136 5.2 -8.7°
